sat.trackr.live / text

‹ back to catalog

STARLINK-37288

NORAD 68551 · 2026-070K

PAYLOAD ACTIVE UNKNOWN

§ Identity

Operator
Country
US
Launch date
2026-04-02
Launch site
AFETR
Launch vehicle
Mass (kg)
RCS (m²)

Purposes: comms

External: N2YO · Heavens-Above · Gunter

§ Orbital elements

Epoch: 2026-09-20T00:32:31.966080Z

Period
93.85 min
Inclination
53.1589°
Eccentricity
0.0001854
Mean motion
15.34413767 rev/d
Perigee alt
461.4 km
Apogee alt
463.9 km
Semi-major
6,840.8 km
B*
4.0004e-4
RAAN
175.9791°
Arg perigee
99.5424°
Mean anomaly
260.5788°
Rev number
2,636

§ Raw data

STARLINK-372881 68551U 26070K   26263.02259220  .00013169  00000+0  40004-3 0  99912 68551  53.1589 175.9791 0001854  99.5424 260.5788 15.34413767 26362

JSON: /api/v1/satellites/68551 · /tle

For live sub-satellite position, see the globe view (requires WebGL).

§ Visibility from observer

Set your observer location to see the next 7 days of passes ≥ 10°. The values pass through the URL so the page stays shareable.

No JS? Fill the form by hand. The geolocation button needs JavaScript.